Date,TemperatureHighF,TemperatureAvgF,TemperatureLowF,DewpointHighF,DewpointAvgF,DewpointLowF,HumidityHigh,HumidityAvg,HumidityLow,PressureMaxIn,PressureMinIn,WindSpeedMaxMPH,WindSpeedAvgMPH,GustSpeedMaxMPH,PrecipitationSumIn
2012-1-1,79.0,74.2,68.3,68.8,66.6,64.9,93,78,68,31.23,31.13,5,2,8,0.00
2012-1-2,77.8,70.3,60.9,67.5,63.3,49.4,91,79,62,31.19,31.06,6,2,9,0.00
2012-1-3,61.1,55.0,49.2,51.9,37.7,25.7,75,53,38,31.39,31.17,8,4,16,0.00
2012-1-4,64.2,54.2,46.1,53.3,43.2,26.1,81,67,42,31.42,31.27,7,4,14,0.00
2012-1-5,70.7,59.5,53.4,57.0,48.5,42.3,88,67,56,31.32,31.20,6,2,13,0.00
2012-1-6,70.7,60.0,51.2,57.8,51.6,43.0,87,74,57,31.27,31.14,4,1,6,0.00
2012-1-7,69.4,60.5,58.1,57.6,55.6,53.6,94,84,62,31.21,31.13,3,2,6,0.00
2012-1-8,75.5,70.7,61.3,64.9,61.6,57.3,88,73,55,31.23,31.13,6,3,11,0.00
2012-1-9,75.9,72.4,70.5,65.5,64.0,61.8,82,75,66,31.17,31.07,10,5,15,0.00
2012-1-10,76.8,73.0,70.1,67.2,65.3,63.1,83,77,69,31.07,30.93,8,4,10,0.00
2012-1-11,78.3,75.1,71.7,70.4,67.5,64.3,90,78,64,30.97,30.73,12,5,23,0.11
2012-1-12,75.5,72.4,69.1,70.7,69.0,66.0,96,89,73,30.99,30.83,7,1,9,0.01
2012-1-13,78.7,71.6,66.6,68.2,65.6,62.3,96,82,62,31.14,30.98,3,0,6,0.02
2012-1-14,69.8,53.6,57.5,65.2,27.5,-99.9,89,54,44,31.32,31.13,8,-148,18,0.00
2012-1-15,70.5,50.3,57.9,57.3,18.3,-99.9,81,48,36,31.44,31.31,9,-199,19,0.00
2012-1-16,60.9,21.7,59.5,54.4,-47.3,-99.9,82,25,69,31.39,31.32,6,-638,12,0.00
2012-1-17,76.2,69.1,66.9,65.4,57.8,-99.9,89,74,68,31.28,31.13,6,-34,10,0.01
2012-1-18,79.6,70.7,64.3,68.1,64.9,62.0,94,83,65,31.14,31.04,5,0,8,0.00
2012-1-19,75.6,70.5,64.2,66.5,63.5,59.3,97,79,65,31.12,31.01,5,2,9,0.00
2012-1-20,66.2,65.5,65.2,63.0,62.3,61.3,91,89,85,31.13,31.08,1,1,4,0.00
2012-1-21,78.3,72.8,66.9,66.8,63.9,59.8,92,74,62,31.14,31.03,5,2,8,0.00
2012-1-22,78.7,72.4,66.4,67.1,65.1,60.9,94,78,65,31.11,31.03,7,3,10,0.00
2012-1-23,77.9,74.3,72.1,68.9,67.3,65.1,85,79,73,31.10,31.02,9,4,14,0.00
2012-1-24,79.0,74.9,72.7,70.0,68.3,66.4,86,80,72,31.14,31.04,7,5,13,0.00
2012-1-25,78.7,75.3,73.2,70.0,68.2,66.2,86,79,72,31.13,31.03,10,6,13,0.00
2012-1-26,79.1,75.3,74.0,70.9,68.7,66.0,87,80,72,31.08,30.96,11,7,18,0.00
2012-1-27,81.7,76.5,72.0,73.0,70.9,69.2,92,83,72,31.05,30.94,7,3,14,0.00
2012-1-28,81.3,74.6,71.0,73.0,70.8,69.0,96,88,75,31.12,31.01,5,2,8,0.00
2012-1-30,76.4,73.2,71.2,66.6,65.0,63.0,85,76,68,31.24,31.17,9,6,17,0.01
2012-1-31,76.3,73.6,72.0,68.4,67.0,65.1,83,80,75,31.25,31.16,9,7,17,0.02
2012-2-1,78.2,74.9,72.5,69.3,68.2,66.7,85,80,72,31.19,31.09,9,6,17,0.00
2012-2-2,73.4,73.3,73.3,67.6,67.1,66.5,82,81,79,31.11,31.10,4,4,11,0.00
2012-2-3,77.5,74.5,70.9,68.9,66.4,63.1,91,76,67,31.15,31.06,11,8,20,0.08
2012-2-4,77.7,74.4,70.9,68.8,67.5,65.4,91,79,70,31.10,31.00,11,7,20,0.11
2012-2-5,76.1,74.0,67.9,71.1,69.4,65.9,94,86,81,31.02,30.93,10,5,14,0.24
2012-2-6,77.6,72.1,67.6,72.6,68.8,66.0,97,89,76,31.03,30.93,16,5,26,0.63
2012-2-7,78.8,73.2,70.6,73.3,70.9,68.8,96,93,82,31.01,30.91,5,1,8,0.58
2012-2-8,74.4,71.1,69.5,70.3,68.7,67.2,97,92,84,31.04,30.94,4,1,9,0.00
2012-2-9,78.5,71.9,67.8,71.5,68.5,64.5,97,89,77,31.05,30.96,7,3,12,0.93
2012-2-10,78.9,72.1,69.0,74.4,70.8,67.8,98,96,85,31.04,30.91,6,1,14,1.12
2012-2-11,75.1,71.2,62.9,71.8,66.7,55.6,97,86,71,31.06,30.87,6,2,10,0.06
2012-2-12,53.4,52.6,52.0,41.5,38.6,35.5,66,59,53,31.24,31.20,8,7,14,0.00
2012-2-13,56.7,53.8,52.4,52.4,50.5,49.6,91,89,86,31.24,31.21,6,5,17,0.00
2012-2-14,75.8,71.7,67.6,64.5,63.1,61.4,85,75,65,31.14,31.05,7,3,10,0.00
2012-2-15,76.9,72.7,69.6,66.1,64.1,61.4,82,75,67,31.13,31.08,5,4,9,0.00
2012-2-16,71.8,71.8,71.8,66.0,66.0,66.0,82,82,82,31.12,31.12,4,4,6,0.00
2012-2-17,78.8,75.4,72.9,69.6,67.9,66.9,83,78,70,31.08,30.98,5,2,7,0.00
2012-2-18,80.5,74.4,68.0,70.3,68.3,66.2,95,82,69,31.01,30.91,4,1,8,0.00
2012-2-20,68.9,68.2,67.4,64.5,63.6,62.4,86,85,84,30.99,30.95,4,2,8,0.00
2012-2-21,76.0,72.8,70.5,63.4,62.1,60.5,75,69,61,31.18,31.08,8,5,12,0.00
2012-2-22,79.5,74.4,70.5,66.9,64.4,62.0,80,71,62,31.11,30.94,5,3,12,0.00
2012-2-23,81.8,77.1,72.5,73.0,71.2,68.1,92,82,73,31.00,30.91,5,3,11,0.00
2012-2-24,83.3,77.4,73.8,75.3,72.8,70.6,93,86,76,31.02,30.93,5,2,8,0.00
2012-2-25,83.3,77.3,72.3,74.6,72.4,70.0,96,85,73,31.11,30.99,7,2,11,0.00
2012-2-26,80.3,76.4,74.2,71.5,70.6,69.2,90,82,73,31.18,31.09,12,8,19,0.01
2012-2-27,81.2,77.3,75.3,73.1,71.6,70.3,90,83,74,31.23,31.14,10,7,18,0.00
2012-2-28,80.8,77.1,74.9,72.1,70.7,69.1,88,81,72,31.20,31.11,8,6,14,0.00
2012-2-29,81.0,76.6,73.8,71.9,69.9,67.2,90,80,69,31.17,31.06,9,5,14,0.05
2012-3-1,82.5,77.5,75.0,71.5,69.8,68.0,87,77,68,31.09,30.99,7,4,10,0.00
2012-3-2,80.9,76.3,75.0,72.0,70.1,67.7,85,81,74,31.01,30.95,9,5,12,0.00
2012-3-3,82.9,78.4,75.8,74.0,72.1,69.2,90,81,72,30.96,30.83,7,5,15,0.00
2012-3-4,83.2,74.8,66.9,76.4,68.1,50.6,93,80,54,31.04,30.84,10,6,18,0.11
2012-3-5,68.4,68.1,67.6,57.1,56.0,55.0,68,65,63,31.30,31.28,4,3,10,0.00
2012-3-6,74.4,72.3,68.6,66.2,60.2,52.3,85,66,54,31.29,31.24,13,10,24,0.01
2012-3-7,77.0,73.0,69.5,70.1,67.8,64.7,91,84,78,31.27,31.17,14,9,22,0.05
2012-3-8,79.2,75.1,71.2,70.9,69.2,67.7,92,82,74,31.20,31.09,10,7,17,0.07
2012-3-9,80.5,76.2,72.9,71.8,70.0,68.6,89,81,73,31.15,31.05,8,5,17,0.00
2012-3-10,80.7,75.6,71.5,72.9,69.6,67.3,96,82,66,31.16,31.04,7,3,17,0.00
2012-3-11,80.2,76.3,72.1,69.7,67.9,66.0,89,75,68,31.20,31.10,10,7,19,0.01
2012-3-12,78.3,74.7,71.4,69.7,66.8,64.0,90,77,67,31.22,31.10,11,8,18,0.01
2012-3-13,80.1,74.9,71.1,66.4,64.5,62.4,77,70,57,31.18,31.09,7,5,15,0.00
2012-3-14,80.0,75.5,72.6,67.3,65.5,62.9,81,71,60,31.16,31.06,8,5,15,0.00
2012-3-15,80.3,74.9,70.7,70.6,68.6,66.5,93,81,71,31.13,31.04,9,6,16,0.16
2012-3-16,79.4,75.7,73.1,70.1,67.8,65.4,85,77,68,31.16,31.05,8,6,14,0.00
2012-3-17,80.0,75.9,73.3,68.0,66.3,62.6,81,73,61,31.17,31.07,8,5,15,0.00
2012-3-18,79.8,75.4,70.7,67.7,64.9,60.8,78,70,61,31.17,31.07,8,5,15,0.00
2012-3-19,79.5,75.1,68.9,67.4,65.6,63.3,92,73,60,31.12,31.00,9,6,16,0.16
2012-3-20,79.4,75.6,73.2,67.9,65.5,63.4,78,71,61,31.06,30.96,9,7,15,0.00
2012-3-21,80.5,76.9,74.4,71.9,70.0,66.7,88,79,72,31.08,30.97,14,8,23,0.01
2012-3-22,79.9,76.6,73.4,71.2,69.7,67.4,90,80,71,31.11,31.00,10,7,18,0.13
2012-3-23,80.1,76.5,74.3,69.8,66.7,63.6,83,72,60,31.08,30.98,8,5,12,0.00
2012-3-24,81.3,76.6,73.8,68.1,66.4,64.3,78,71,62,31.02,30.92,6,4,12,0.00
2012-3-25,83.6,77.2,74.8,72.8,69.9,67.6,85,78,68,30.95,30.82,7,3,13,0.00
2012-3-26,82.5,74.9,68.9,69.6,63.5,59.3,84,68,49,30.97,30.86,7,3,12,0.00
2012-3-27,79.9,75.1,70.4,69.0,65.3,60.6,83,72,62,31.09,30.94,9,4,14,0.00
2012-3-28,79.1,75.7,73.7,67.6,64.4,61.1,78,68,56,31.12,31.02,12,8,19,0.00
2012-3-29,79.7,75.1,72.5,65.6,63.3,61.0,74,67,58,31.05,30.95,10,6,15,0.00
2012-3-30,79.6,75.5,72.9,67.7,64.7,59.2,78,69,60,31.04,30.94,8,5,14,0.00
2012-3-31,85.0,78.2,74.7,73.6,70.4,67.4,89,77,67,31.00,30.87,6,3,11,0.00
2012-4-1,84.3,77.8,73.7,73.0,70.6,66.4,90,79,64,30.93,30.82,5,1,9,0.00
2012-4-2,86.4,78.1,72.3,71.6,68.8,65.6,85,74,60,30.91,30.81,3,1,8,0.00
2012-4-3,84.0,77.4,70.7,73.2,69.8,65.8,92,78,62,30.95,30.86,6,2,12,0.00
2012-4-4,84.3,79.5,76.7,71.9,69.5,66.6,80,72,63,30.94,30.79,7,4,12,0.00
2012-4-5,84.8,77.8,68.7,74.8,70.9,66.0,92,80,66,30.85,30.74,8,4,15,0.36
2012-4-6,86.8,79.5,76.6,76.4,73.5,70.4,89,82,72,30.83,30.71,8,4,14,0.00
2012-4-11,61.2,53.2,45.3,34.7,25.9,19.5,39,35,30,30.40,30.27,3,1,8,0.05
2012-10-29,74.6,70.5,67.5,61.8,58.2,55.3,71,65,58,30.86,30.77,5,3,9,0.00
2012-10-30,74.3,68.7,65.1,61.1,56.8,52.6,73,66,53,30.96,30.83,5,2,10,0.00
2012-10-31,76.4,69.8,63.7,62.4,59.0,55.7,81,69,54,31.06,30.97,3,1,7,0.00
2012-11-1,78.7,70.4,62.4,65.6,62.0,57.9,89,76,57,31.08,30.97,2,1,5,0.00
2012-11-2,81.6,72.9,67.0,70.4,66.4,60.3,93,81,66,31.06,30.98,2,0,5,0.00
2012-11-3,81.5,72.6,66.7,66.0,62.6,54.9,86,72,44,31.11,31.01,4,1,9,0.00
2012-11-4,81.0,74.1,68.9,67.4,64.4,59.4,93,73,55,31.08,30.97,4,2,9,0.00
2012-11-5,81.4,73.7,70.3,67.8,65.6,61.6,87,76,58,30.99,30.89,3,1,6,0.00
2012-11-6,82.5,74.9,69.1,70.5,68.1,65.2,92,80,63,30.92,30.81,2,0,6,0.00
2012-11-7,78.0,71.5,65.6,70.6,62.9,53.5,92,75,59,30.97,30.80,4,2,9,0.00
2012-11-8,69.3,65.2,62.4,54.1,49.2,43.3,69,57,44,31.11,30.96,6,4,11,0.00
2012-11-9,76.7,68.6,61.8,62.1,56.4,51.9,82,66,47,31.17,31.09,7,4,13,0.00
2012-11-10,76.8,72.5,67.7,63.2,59.2,53.8,79,63,53,31.20,31.11,8,4,14,0.00
2012-11-11,77.5,74.5,71.7,66.4,63.4,56.7,78,69,56,31.18,31.10,10,7,16,0.00
2012-11-12,79.7,75.4,71.4,70.7,68.5,66.1,88,79,72,31.13,31.05,9,6,15,0.08
2012-11-13,79.9,74.9,70.9,70.5,68.4,65.2,91,81,65,31.08,30.98,7,3,13,0.00
2012-11-14,72.4,71.2,70.2,68.6,67.4,66.6,90,88,83,31.03,31.00,3,2,6,0.00
2012-11-15,80.7,74.7,70.3,70.4,67.6,64.7,93,79,60,31.06,30.98,6,1,8,0.00
2012-11-16,78.5,72.7,68.8,69.1,67.6,65.7,92,84,69,31.06,30.97,5,3,10,0.00
2012-11-17,79.3,73.3,68.3,70.3,68.1,66.2,95,84,71,31.04,30.96,7,3,12,0.01
2012-11-18,79.3,73.0,69.3,71.1,68.3,66.5,95,86,70,31.07,30.97,6,3,13,0.16
2012-11-19,76.5,69.7,62.9,66.8,62.0,56.1,94,78,51,31.09,30.98,6,4,14,0.00
2012-11-20,66.9,63.9,60.3,64.2,60.6,57.2,92,89,84,31.04,30.93,3,1,11,0.00
2012-11-21,75.6,68.0,62.5,64.1,60.7,52.1,93,78,61,31.02,30.90,7,2,15,0.00
2012-11-22,64.9,62.4,60.0,54.3,51.7,49.4,76,68,62,31.04,31.00,8,5,14,0.00
2012-11-23,75.8,67.8,64.6,65.2,61.5,57.3,86,81,68,31.09,31.02,4,1,9,0.00
2012-11-24,75.1,66.2,61.0,62.8,57.6,48.6,91,74,57,31.13,31.00,6,2,11,0.00
2012-11-25,72.4,64.2,59.0,61.1,57.6,54.2,95,80,56,31.13,31.05,3,1,8,0.00
2012-11-26,76.3,68.1,63.1,66.8,63.3,60.8,93,85,69,31.17,31.09,7,2,9,0.00
2012-11-27,77.5,74.6,72.0,69.1,67.9,66.1,88,80,74,31.15,31.05,8,3,12,0.00
2012-11-28,77.9,71.2,68.0,70.1,67.6,65.7,96,89,75,31.16,31.06,5,1,9,0.00
2012-11-29,78.5,71.4,65.6,69.1,66.4,63.1,94,85,70,31.17,31.08,9,4,16,0.01
2012-11-30,76.6,73.0,68.2,68.4,66.5,64.6,95,80,72,31.15,31.06,9,5,16,0.10
2012-12-1,77.8,73.4,69.2,69.6,66.0,62.8,92,78,63,31.13,31.05,8,4,15,0.00
2012-12-2,78.3,74.4,71.5,69.8,66.7,64.2,83,77,72,31.17,31.07,8,5,15,0.00
2012-12-3,77.1,73.8,70.8,67.6,63.3,56.4,77,70,58,31.18,31.09,9,5,14,0.00
2012-12-4,77.7,73.4,68.1,66.7,64.7,57.0,89,75,58,31.17,31.09,8,5,14,0.05
2012-12-5,77.6,73.6,69.5,67.4,65.2,62.5,90,75,64,31.10,30.96,7,4,12,0.00
2012-12-6,80.8,73.2,69.3,70.8,67.9,65.9,94,84,65,30.97,30.86,4,1,8,0.01
2012-12-7,80.8,74.6,69.3,72.7,69.8,66.7,96,85,73,30.93,30.84,6,2,11,0.18
2012-12-8,80.3,77.0,74.4,74.1,72.4,70.0,92,86,80,30.99,30.89,8,4,13,0.00
2012-12-9,83.9,78.8,75.8,76.8,74.7,72.9,93,88,79,31.03,30.93,6,2,9,0.00
2012-12-10,83.8,79.8,77.8,77.3,75.8,75.0,92,88,80,30.93,30.86,7,4,10,0.00
2012-12-11,84.9,79.7,77.4,78.5,75.9,73.9,95,88,80,31.01,30.88,6,3,9,0.00
2012-12-12,82.0,78.4,74.8,74.8,73.1,71.3,91,84,75,31.06,30.96,6,3,12,0.00
2012-12-13,77.1,76.2,74.1,72.5,71.8,70.5,89,86,84,31.01,30.99,5,2,9,0.00
2012-12-14,79.1,73.4,67.9,70.2,67.0,64.6,94,81,69,31.08,30.99,6,3,12,0.00
2012-12-15,78.7,73.1,69.2,70.5,67.8,65.5,94,84,67,31.06,30.95,8,3,14,0.01
2012-12-16,80.5,76.0,74.1,70.2,67.7,65.0,81,75,67,31.00,30.88,7,4,14,0.00
2012-12-17,82.4,76.7,71.6,73.4,70.1,66.6,96,81,71,30.94,30.84,5,2,12,0.00
2012-12-18,78.3,75.1,72.6,74.4,72.0,70.6,95,90,84,30.96,30.87,3,1,12,0.01
2012-12-29,77.0,77.0,77.0,73.2,73.2,73.2,88,88,88,30.92,30.92,2,2,2,0.00
2012-12-30,68.7,64.4,57.1,60.3,55.6,47.8,82,73,69,31.26,31.15,9,5,17,0.00
2012-12-31,73.6,70.7,68.1,62.7,60.7,57.9,77,71,65,31.25,31.15,9,7,18,0.00
2013-1-1,77.8,73.5,71.6,69.0,65.2,60.6,87,75,67,31.16,31.00,9,4,13,0.00